Location: Kellogg
(38.0159°N, 90.0546°W)
Time: 22:50:34
(UTC+00:00)

Envisat - Pass Details

Date: 07 August 2024
Orbit: 762 x 764 km, 98.3° (Epoch: 08 September)

Event Time Altitude Azimuth Distance (km) Brightness Sun altitude
Rises 08:44:26 0° 19° (NNE) 3,233 7.3 -24.2°
Reaches altitude 10° 08:46:50 10° 25° (NNE) 2,303 6.4 -23.9°
Maximum altitude 08:51:43 47° 99° (E) 999 3.7 -23.3°
Enters shadow 08:54:05 28° 158° (SSE) 1,413 4.1 -22.9°
